Temp
63 63 63 63 63 64 64 64 64 64 64 64 65 64 64 64 65 72 77 75 76 72 70 83 84 83 84 79 80 81 73 68 71 70 74 77 74 77 79 77 76 78 78 78 84
63 63 63 63 63 63 63 63 63 63 64 64 64 64 64 64 75 76 72 72 72 72 79 80 80 81 80 77 79 76 71 72 77 78 75 76 76 78 74 76 75 76 78 76 79
62 62 62 62 62 63 63 63 63 63 63 63 63 63 63 67 75 74 71 72 72 74 82 83 83 81 76 78 76 76 71 76 75 76 75 75 74 78 74 73 79 78 79 75 75
62 61 62 62 62 62 63 62 62 63 63 63 63 63 63 74 64 75 70 71 71 78 80 79 79 75 73 70 75 70 73 74 72 71 71 72 76 73 74 78 81 85 85 78 75
61 60 61 61 61 62 62 62 62 62 62 63 63 63 71 72 72 77 68 72 78 78 78 77 76 76 71 73 72 71 72 71 71 70 71 70 71 73 76 81 80 77 76 78 77
60 60 60 60 61 61 62 62 62 62 62 63 63 62 73 67 74 77 76 76 79 79 77 78 77 78 74 72 70 71 71 71 71 71 71 68 72 69 77 82 82 77 76 79 78
61 60 60 60 61 61 61 61 62 62 62 63 63 70 72 70 76 78 76 76 76 78 75 76 78 75 75 68 70 69 67 70 71 71 70 69 66 68 78 75 76 78 78 80 80
60 60 60 60 60 61 61 61 61 61 62 63 64 72 70 73 78 75 77 75 78 78 77 76 79 74 72 72 69 67 67 63 71 68 68 67 63 77 77 78 74 78 80 80 80
60 60 60 60 60 60 60 61 60 61 62 64 71 71 68 71 71 73 75 74 74 75 75 76 76 71 69 67 63 65 62 63 66 68 67 65 65 76 72 71 73 77 79 80 81
59 59 60 60 60 60 60 61 62 63 67 71 72 67 67 67 69 71 75 74 72 71 71 71 71 67 67 65 57 61 60 63 62 65 63 64 64 72 76 73 72 76 79 80 79
58 58 59 60 60 60 63 66 66 64 67 67 66 65 65 67 69 68 71 72 72 70 63 65 63 59 65 68 68 64 62 61 67 65 60 63 65 70 75 76 75 76 76 78 80
56 57 58 59 60 60 64 68 63 62 59 66 65 64 67 69 63 66 71 67 65 60 62 60 57 67 65 65 62 62 60 60 66 63 58 63 63 69 72 73 75 76 77 79 81
55 56 57 59 60 62 64 64 68 68 60 61 64 63 64 66 65 65 68 67 63 60 59 59 62 64 61 59 58 60 59 60 60 60 61 58 59 66 74 75 75 76 78 78 80
55 55 55 58 56 62 61 63 67 67 54 58 57 59 61 65 59 64 71 67 60 59 61 60 65 58 57 57 61 55 66 61 59 55 52 60 51 64 70 72 75 76 76 78 79
55 55 55 56 56 56 59 61 64 64 34 58 54 64 59 60 59 58 65 63 60 58 59 58 55 54 54 58 62 58 58 58 56 53 53 54 49 60 69 67 70 75 77 79 80
55 55 55 56 58 58 60 61 60 42 32 49 55 53 54 56 54 57 59 65 61 60 58 58 58 60 60 56 60 59 56 55 54 53 44 54 53 57 65 69 74 76 77 78 79
55 55 56 57 55 60 60 56 37 32 48 48 49 52 54 52 53 55 52 52 52 47 49 55 54 57 57 52 55 57 54 45 43 40 42 53 51 58 67 71 72 73 74 77 75
54 54 56 57 60 58 56 47 32 43 50 52 51 51 49 52 53 53 53 51 56 56 51 48 45 53 56 57 54 51 55 46 36 40 46 44 43 57 69 72 69 69 71 71 72
53 55 55 59 57 56 48 35 41 49 55 50 51 48 48 50 52 51 52 54 58 57 49 51 48 57 57 60 62 52 46 58 46 39 39 49 57 66 68 64 67 70 71 71 72
52 51 51 59 58 52 43 38 47 55 53 54 46 52 48 49 48 49 51 57 54 59 61 56 46 51 52 55 56 54 59 44 46 34 33 46 50 53 61 66 69 69 69 71 71
50 45 52 57 58 45 37 41 49 55 55 51 50 50 51 51 50 49 51 56 57 55 59 57 51 45 50 49 51 49 48 49 51 47 38 38 48 66 66 67 66 67 66 67 68
48 38 52 56 42 45 40 47 49 51 55 52 53 51 51 50 48 50 48 54 58 56 50 56 51 43 48 57 57 58 53 52 42 40 45 42 45 67 67 66 65 64 67 67 66
42 45 52 48 38 41 45 46 50 48 50 49 48 51 54 49 42 47 48 58 55 54 49 53 42 33 39 48 49 47 53 53 53 44 37 36 44 65 68 67 66 64 67 67 66
42 36 43 42 48 44 43 43 42 50 49 52 49 52 48 46 50 45 45 48 50 51 45 48 38 39 38 47 51 43 47 51 49 39 41 43 49 58 62 64 67 67 64 67 69
41 39 46 33 36 41 44 45 41 41 47 50 46 46 45 41 44 43 46 46 48 45 46 42 33 37 42 46 46 45 46 47 46 49 43 47 49 56 60 63 66 69 69 68 68
35 38 42 42 43 38 38 39 39 43 44 42 42 47 47 42 45 42 46 42 40 47 44 40 32 35 32 40 41 36 41 45 47 48 48 50 50 62 65 66 65 65 66 65 66
42 42 42 40 39 38 35 38 41 44 46 48 47 44 43 46 51 50 45 43 42 38 36 39 35 32 29 39 39 31 37 42 45 49 49 43 52 59 59 61 62 64 64 64 65
MSLP
1016.46 1016.47 1016.53 1016.66 1016.64 1016.55 1016.54 1016.32 1016.25 1016.09 1015.95 1015.62 1015.51 1015.13 1014.85 1014.70 1014.40 1014.45 1013.52 1013.66 1013.48 1013.59 1013.55 1012.94 1012.69 1012.43 1012.13 1011.87 1011.90 1011.32 1010.15 1009.52 1009.56 1010.03 1010.07 1011.28 1011.64 1012.50 1012.86 1012.79 1013.26 1013.53 1013.61 1014.29 1014.55
1016.45 1016.37 1016.56 1016.62 1016.68 1016.54 1016.45 1016.52 1016.31 1016.27 1016.10 1015.64 1015.50 1015.02 1014.96 1014.44 1014.28 1013.97 1013.92 1013.58 1013.60 1013.57 1013.24 1012.71 1012.27 1012.34 1011.65 1011.72 1011.55 1011.11 1010.23 1009.76 1010.24 1010.58 1010.78 1011.30 1011.65 1011.99 1012.84 1012.62 1012.86 1013.33 1014.09 1014.82 1015.08
1016.33 1016.48 1016.58 1016.63 1016.62 1016.65 1016.60 1016.63 1016.23 1016.13 1016.06 1015.72 1015.42 1014.92 1014.70 1014.32 1014.13 1013.61 1013.77 1013.71 1013.80 1013.53 1012.96 1012.74 1012.25 1012.14 1011.61 1011.62 1011.55 1011.06 1010.56 1010.54 1011.05 1011.72 1011.82 1011.57 1011.81 1012.10 1012.31 1011.86 1011.86 1012.05 1013.04 1014.44 1014.91
1016.36 1016.45 1016.51 1016.58 1016.64 1016.65 1016.72 1016.43 1016.31 1016.11 1015.70 1015.36 1015.35 1014.99 1014.43 1014.07 1014.03 1013.85 1013.87 1013.76 1013.83 1013.40 1012.99 1012.66 1012.29 1012.10 1011.44 1011.42 1011.73 1011.48 1011.47 1011.61 1011.99 1012.62 1012.60 1012.19 1011.88 1011.92 1012.04 1011.52 1011.89 1011.68 1012.01 1013.65 1014.26
1016.61 1016.65 1016.88 1016.84 1016.66 1016.76 1016.64 1016.54 1016.31 1015.82 1015.59 1015.51 1015.24 1014.81 1014.37 1013.76 1013.59 1013.73 1013.79 1013.69 1013.56 1013.41 1012.80 1012.66 1012.25 1011.94 1011.44 1011.46 1011.96 1011.79 1011.82 1012.31 1012.71 1012.96 1012.93 1013.03 1012.28 1011.91 1011.38 1011.51 1012.10 1012.59 1012.92 1013.08 1013.59
1016.52 1016.67 1016.83 1016.83 1016.88 1016.83 1016.58 1016.44 1016.09 1015.82 1015.64 1015.26 1014.90 1014.53 1013.97 1013.79 1013.90 1013.65 1013.86 1013.67 1013.33 1013.12 1012.97 1012.78 1012.28 1012.32 1011.79 1011.92 1011.92 1012.30 1012.34 1012.32 1012.84 1012.96 1013.13 1013.11 1012.27 1012.23 1011.07 1011.14 1011.33 1012.13 1012.44 1012.64 1012.96
1016.47 1016.70 1016.81 1016.81 1016.81 1016.67 1016.64 1016.40 1016.17 1015.69 1015.66 1015.21 1014.88 1014.44 1013.68 1013.95 1013.79 1013.85 1013.76 1013.68 1013.49 1013.19 1013.05 1013.22 1012.95 1012.84 1012.41 1012.56 1012.66 1012.75 1012.43 1012.33 1012.41 1012.84 1013.09 1013.32 1012.24 1011.06 1010.77 1011.35 1011.32 1011.36 1011.78 1011.92 1012.24
1016.25 1016.52 1016.50 1016.66 1016.69 1016.73 1016.71 1016.37 1016.13 1015.75 1015.29 1015.07 1014.88 1014.20 1013.43 1013.89 1013.87 1014.03 1013.77 1013.67 1013.70 1013.37 1013.53 1013.57 1013.39 1013.26 1012.67 1013.13 1012.69 1012.36 1012.39 1011.73 1011.73 1012.85 1013.29 1013.40 1010.99 1009.86 1010.25 1010.48 1010.85 1010.80 1010.72 1011.00 1011.40
1016.10 1016.35 1016.32 1016.48 1016.51 1016.47 1016.42 1016.10 1015.85 1015.57 1015.32 1015.04 1014.61 1013.98 1013.61 1013.92 1014.15 1014.20 1014.02 1013.56 1013.70 1013.82 1013.76 1013.76 1013.63 1013.30 1013.20 1012.65 1012.14 1011.95 1011.19 1011.30 1011.71 1012.67 1012.84 1012.86 1010.76 1009.85 1010.67 1010.84 1010.39 1010.11 1009.93 1009.97 1010.35
1015.80 1016.09 1016.25 1016.36 1016.30 1016.43 1016.17 1015.80 1015.35 1015.27 1014.93 1014.63 1014.46 1014.20 1013.85 1013.76 1014.31 1014.27 1014.29 1013.75 1013.82 1013.92 1013.74 1013.61 1013.38 1013.05 1012.66 1012.14 1011.08 1010.87 1011.35 1011.28 1011.76 1012.49 1012.95 1012.20 1010.93 1010.32 1009.95 1010.04 1010.01 1009.61 1009.28 1009.25 1009.52
1016.06 1016.10 1016.06 1016.08 1016.27 1016.26 1015.86 1015.60 1015.54 1015.16 1014.43 1013.80 1013.93 1013.40 1013.55 1014.63 1014.66 1014.41 1014.20 1013.82 1014.06 1013.64 1013.37 1013.67 1013.14 1012.37 1011.93 1011.94 1011.61 1011.69 1011.52 1011.47 1011.33 1012.68 1012.97 1011.76 1010.46 1009.75 1009.20 1008.86 1008.78 1008.66 1008.56 1008.48 1008.28
1016.46 1016.13 1016.05 1016.08 1016.25 1016.37 1016.00 1014.71 1015.33 1015.74 1014.56 1013.88 1013.75 1013.95 1014.29 1014.20 1014.04 1014.40 1014.37 1014.10 1013.78 1013.27 1013.95 1013.89 1012.87 1012.22 1012.52 1012.58 1012.66 1012.22 1012.10 1011.74 1011.71 1012.61 1013.32 1011.71 1009.84 1009.15 1008.70 1007.75 1007.83 1007.71 1007.38 1007.31 1007.27
1016.95 1016.57 1016.20 1016.14 1016.48 1016.36 1015.64 1015.60 1015.44 1015.33 1014.71 1013.93 1013.93 1013.96 1014.24 1014.24 1013.85 1013.67 1014.06 1013.58 1013.42 1013.40 1013.71 1013.06 1012.76 1012.87 1013.19 1013.22 1012.94 1012.50 1012.30 1012.13 1012.14 1012.92 1012.95 1012.03 1009.42 1007.81 1006.82 1006.66 1007.00 1006.85 1006.61 1006.62 1006.35
1016.62 1016.89 1016.47 1016.34 1016.84 1016.39 1016.09 1016.13 1015.65 1015.42 1014.55 1013.56 1014.10 1014.05 1014.24 1014.07 1014.09 1014.16 1013.66 1013.63 1013.72 1013.48 1013.42 1013.16 1012.94 1013.46 1013.59 1013.37 1013.37 1012.81 1012.57 1012.94 1012.85 1013.26 1012.47 1012.24 1008.77 1006.97 1006.31 1005.79 1005.71 1005.68 1005.75 1005.54 1005.64
1017.36 1016.98 1016.93 1016.75 1016.56 1016.68 1016.55 1016.30 1015.93 1015.48 1014.86 1013.44 1014.02 1014.40 1014.27 1014.12 1014.30 1014.40 1014.60 1014.17 1013.31 1013.38 1013.59 1012.76 1013.37 1013.62 1013.53 1013.24 1013.61 1013.53 1013.82 1013.74 1013.71 1013.55 1013.04 1012.01 1010.76 1006.49 1005.75 1004.87 1004.92 1004.84 1004.64 1004.79 1005.00
1017.30 1017.17 1017.11 1016.67 1016.31 1016.83 1016.85 1016.53 1016.17 1016.32 1014.54 1013.76 1013.93 1014.00 1014.04 1014.08 1014.39 1014.63 1014.59 1014.35 1014.27 1013.55 1013.63 1013.34 1014.13 1013.84 1013.65 1014.16 1014.08 1014.49 1014.49 1014.44 1014.36 1014.03 1012.62 1010.82 1010.10 1005.08 1004.88 1004.08 1003.87 1004.30 1004.38 1004.64 1004.97
1017.74 1017.60 1017.29 1016.99 1016.60 1016.85 1016.99 1016.41 1016.34 1015.47 1014.80 1013.82 1013.46 1013.80 1013.44 1013.61 1014.04 1014.16 1014.22 1013.97 1013.46 1013.65 1012.89 1013.36 1013.58 1014.00 1014.20 1014.51 1015.02 1014.63 1014.33 1014.04 1013.92 1013.62 1011.37 1010.82 1009.64 1004.95 1005.02 1004.64 1004.60 1004.68 1004.68 1004.76 1005.33
1018.09 1017.91 1017.21 1017.02 1016.83 1016.90 1016.76 1016.47 1015.33 1013.80 1013.13 1013.30 1013.22 1013.56 1013.24 1013.35 1013.43 1013.73 1013.62 1013.12 1013.14 1012.76 1012.42 1012.22 1012.44 1013.22 1013.61 1012.92 1013.39 1014.03 1013.47 1013.06 1012.37 1012.60 1011.45 1011.46 1008.52 1004.95 1004.98 1004.80 1004.99 1005.29 1005.17 1005.19 1005.56
1018.03 1017.66 1017.08 1016.64 1017.03 1017.14 1016.92 1015.88 1013.12 1012.61 1012.41 1012.55 1013.00 1012.70 1012.81 1013.17 1013.24 1013.58 1013.02 1012.29 1011.99 1012.61 1012.43 1011.61 1012.11 1012.61 1013.15 1012.97 1012.80 1013.58 1013.29 1012.64 1012.99 1013.03 1012.75 1010.23 1006.92 1005.19 1004.93 1005.21 1005.17 1005.16 1005.16 1005.21 1005.49
1017.99 1017.67 1017.18 1016.83 1017.10 1017.11 1016.68 1014.53 1013.39 1012.63 1012.79 1012.43 1011.94 1011.82 1011.73 1012.52 1013.06 1013.21 1012.55 1011.67 1011.99 1012.01 1012.43 1011.82 1012.34 1013.13 1013.63 1013.77 1013.32 1012.95 1012.82 1013.30 1013.27 1012.71 1011.65 1008.85 1007.17 1004.93 1004.48 1004.55 1004.70 1005.05 1005.23 1005.16 1005.55
1018.02 1017.58 1017.05 1017.11 1017.00 1016.86 1015.33 1014.13 1013.61 1013.21 1013.24 1012.64 1011.93 1011.64 1011.67 1011.89 1012.49 1012.55 1011.98 1011.95 1012.16 1012.28 1012.42 1012.39 1012.96 1013.85 1013.93 1013.05 1012.31 1013.14 1012.90 1012.66 1012.31 1011.91 1010.48 1009.14 1006.19 1004.66 1004.04 1004.22 1004.74 1005.29 1005.76 1005.80 1005.79
1018.02 1017.66 1017.32 1017.10 1017.08 1016.04 1014.69 1014.09 1013.70 1013.40 1013.41 1012.98 1012.81 1012.37 1011.84 1012.32 1012.53 1012.44 1012.24 1012.29 1012.65 1013.03 1013.05 1013.01 1013.15 1013.15 1012.79 1012.41 1012.38 1011.84 1011.32 1011.87 1011.72 1011.11 1011.04 1010.06 1006.57 1004.39 1004.56 1004.77 1005.24 1005.52 1005.64 1005.94 1006.22
1017.70 1017.21 1017.34 1017.31 1015.91 1014.95 1014.61 1014.19 1013.86 1013.67 1013.42 1013.26 1013.00 1012.74 1012.64 1012.89 1013.26 1013.06 1013.01 1013.00 1013.69 1013.81 1014.36 1014.23 1014.74 1014.74 1013.59 1013.18 1013.16 1012.53 1011.80 1011.76 1011.49 1011.65 1010.92 1009.79 1007.04 1004.42 1004.72 1004.81 1005.24 1005.47 1005.62 1005.87 1006.24
1017.75 1017.19 1017.26 1017.46 1015.50 1014.69 1014.23 1013.93 1013.76 1013.74 1013.66 1013.45 1013.25 1013.19 1013.31 1013.18 1013.47 1013.33 1013.71 1014.58 1014.95 1015.11 1015.66 1015.97 1016.17 1014.87 1013.00 1011.59 1011.84 1012.40 1012.06 1011.78 1011.66 1011.21 1009.57 1009.23 1007.16 1005.04 1004.80 1005.34 1004.96 1005.20 1005.64 1005.74 1005.68
1017.61 1016.48 1015.63 1016.08 1015.62 1015.10 1014.65 1013.66 1013.64 1013.72 1013.89 1013.88 1013.66 1013.51 1013.39 1013.55 1013.58 1013.66 1014.37 1015.11 1015.71 1016.30 1016.80 1017.29 1016.69 1016.07 1014.63 1013.64 1013.20 1012.62 1012.28 1012.10 1011.36 1010.47 1009.96 1008.09 1007.65 1005.62 1004.14 1005.58 1005.02 1004.92 1005.09 1005.04 1005.03
1017.08 1016.47 1016.34 1015.45 1015.09 1015.32 1015.10 1014.00 1013.82 1013.63 1013.86 1013.67 1013.55 1013.30 1013.83 1013.68 1013.40 1013.87 1014.52 1015.64 1016.19 1016.41 1017.16 1018.00 1017.34 1016.82 1015.71 1014.74 1014.08 1013.19 1012.50 1011.58 1011.12 1010.49 1009.84 1008.80 1006.99 1006.09 1004.81 1005.28 1005.02 1004.99 1005.01 1004.86 1004.79
1016.54 1016.65 1016.24 1015.37 1015.01 1014.74 1014.19 1013.54 1013.71 1014.24 1013.98 1013.90 1014.01 1014.38 1014.18 1014.12 1014.58 1015.04 1015.94 1016.52 1016.98 1017.50 1017.77 1017.91 1017.43 1017.19 1015.59 1014.34 1013.55 1012.42 1011.08 1010.68 1010.05 1009.68 1009.24 1008.34 1007.13 1006.51 1005.71 1005.09 1005.01 1004.73 1004.96 1004.67 1004.63
Wind_Speed
5 4 3 2 3 4 4 6 7 9 9 9 10 10 9 7 3 4 4 3 2 2 2 2 5 3 5 3 2 3 6 8 8 5 1 7 9 3 4 5 4 6 3 4 16
4 4 3 3 3 4 5 6 7 9 10 11 12 11 11 5 6 6 3 4 3 2 4 7 6 7 5 4 3 6 8 7 4 3 2 7 9 8 6 11 10 9 6 5 14
4 3 2 2 2 3 4 5 7 8 10 11 12 12 12 3 6 2 3 4 4 4 4 3 2 6 5 3 4 3 9 3 2 1 2 5 8 4 9 13 11 12 14 12 15
4 2 1 1 2 3 4 6 7 8 10 12 13 12 10 4 4 3 3 2 4 5 4 4 6 6 6 7 4 7 1 2 2 2 2 4 1 6 14 15 7 8 5 16 17
3 1 1 2 3 4 5 7 8 9 11 12 12 13 3 5 1 2 2 1 3 2 5 6 8 6 8 5 5 7 3 3 2 3 3 2 7 8 13 14 5 1 4 15 15
5 2 2 3 5 5 7 8 9 10 12 12 12 15 4 7 2 2 2 1 1 4 4 4 4 3 1 2 6 2 4 4 4 5 3 5 7 1 7 11 15 12 12 13 15
6 5 4 4 6 7 8 9 9 10 11 11 11 5 4 2 3 3 1 1 1 1 3 1 1 5 4 4 3 2 5 6 9 6 4 4 10 17 14 4 9 16 14 15 15
6 6 4 5 5 7 9 9 10 10 11 10 8 4 1 2 3 0 1 2 2 4 4 2 1 4 2 4 4 4 4 8 7 7 4 6 12 5 1 10 15 16 14 15 16
6 6 4 4 5 7 10 10 10 10 8 8 5 3 2 2 3 1 2 2 4 3 4 3 0 1 4 6 5 6 8 9 6 6 2 11 9 1 2 6 13 13 15 15 16
2 3 4 4 5 9 11 8 3 6 5 3 2 4 3 3 3 1 1 3 1 5 5 3 3 6 6 8 8 9 8 7 9 6 7 10 17 17 13 11 12 13 14 14 15
9 8 4 5 6 8 11 3 4 4 4 3 2 3 3 3 2 2 1 5 3 5 8 3 8 9 14 13 11 4 6 8 3 4 5 12 19 18 17 18 18 19 19 19 20
11 10 6 5 6 8 7 2 3 3 3 4 3 3 1 2 3 5 4 9 7 10 3 5 12 13 0 1 6 8 12 14 13 3 4 14 21 18 18 22 20 20 21 20 20
11 13 8 3 3 6 4 3 3 3 5 3 2 3 2 6 4 10 11 6 6 9 11 15 1 3 6 7 11 13 15 12 13 2 13 14 19 18 17 16 14 20 21 21 21
15 11 14 6 3 1 2 3 3 2 5 7 7 3 5 5 6 3 6 3 5 12 11 11 7 5 9 13 12 16 11 13 11 7 8 1 11 17 17 17 16 16 17 19 18
10 11 11 3 4 2 3 2 5 4 5 7 4 4 2 7 4 2 2 3 11 9 7 4 10 12 13 10 10 3 4 3 4 7 10 13 10 9 13 14 15 17 17 15 13
11 13 13 1 1 1 3 3 1 3 9 2 4 6 7 5 2 3 5 2 4 7 8 7 1 5 4 5 6 11 6 4 2 3 10 12 13 13 15 14 8 7 7 5 5
10 11 7 2 2 3 7 2 4 5 1 7 4 6 10 8 7 6 8 11 12 8 17 13 11 4 4 6 4 10 8 4 6 7 12 6 6 18 13 14 9 11 12 13 2
7 9 2 2 2 2 1 4 6 7 14 2 4 7 7 8 5 8 7 12 16 14 8 14 11 16 14 14 10 15 14 8 9 8 12 4 12 9 2 8 9 9 14 13 8
5 3 3 1 2 2 2 6 9 9 5 8 8 7 7 5 3 9 12 12 11 19 11 10 11 4 4 10 16 9 13 13 11 1 5 11 21 21 15 10 13 17 16 15 12
1 2 3 1 4 1 4 12 11 3 2 7 13 10 12 11 10 10 11 3 10 12 20 5 10 2 4 3 7 8 2 7 8 7 11 16 21 16 10 13 11 12 9 13 7
1 3 2 3 5 3 10 10 13 5 6 5 9 11 9 12 10 8 7 5 5 2 15 10 8 4 5 12 14 9 10 8 5 9 7 12 13 13 15 6 5 4 4 9 8
2 4 2 6 7 6 13 13 7 8 10 8 7 12 14 10 9 13 11 6 3 6 6 12 5 10 12 3 6 17 21 21 10 11 7 11 19 14 4 4 4 7 9 5 5
3 3 2 3 11 13 14 18 17 11 15 9 11 11 11 14 7 11 6 3 2 4 2 3 4 3 5 9 3 7 16 14 16 8 10 13 14 15 14 10 8 9 9 5 4
3 4 4 4 10 12 18 19 19 11 14 16 7 12 13 17 14 6 3 4 5 4 3 3 6 11 11 8 4 5 13 19 18 13 22 21 29 31 25 20 19 12 8 9 7
4 6 6 9 13 15 12 8 19 15 15 14 12 19 15 13 14 18 14 11 7 3 4 4 5 11 20 23 22 21 18 15 21 24 23 26 24 30 28 18 20 18 17 18 20
5 5 2 7 17 18 14 16 18 18 11 14 19 15 18 19 19 12 11 8 6 4 4 6 4 3 15 19 17 15 18 22 21 20 22 27 29 26 27 22 19 20 19 19 18
4 1 4 9 8 15 18 23 12 16 14 16 14 14 14 13 10 6 3 2 2 2 2 5 2 4 20 18 14 12 19 23 27 26 24 24 25 23 25 25 22 22 17 17 18
Wind_Direction
145 127 110 69 33 22 5 360 344 339 332 333 329 334 334 336 96 204 205 35 1 14 304 183 210 182 200 155 257 272 237 239 253 249 270 136 192 168 3 254 215 189 291 67 143
147 127 113 88 46 22 5 350 350 342 334 339 334 340 325 322 234 225 24 330 308 312 212 202 189 190 175 174 193 241 232 250 33 321 268 169 209 175 224 218 226 210 173 156 150
153 143 120 89 46 13 4 344 345 341 335 337 336 337 330 281 233 130 26 334 299 276 260 239 223 220 200 204 187 182 248 69 147 289 275 183 205 205 232 250 239 225 188 178 179
164 166 124 32 2 346 339 338 335 334 337 340 336 333 338 236 244 88 356 335 304 299 210 186 204 211 216 196 191 235 243 265 96 154 220 200 212 215 230 240 3 259 254 177 190
174 180 266 312 332 322 326 324 328 335 336 336 332 332 275 212 135 83 331 185 217 229 220 213 217 225 216 186 182 236 169 183 145 179 233 320 236 242 252 246 201 267 221 191 203
173 209 267 304 306 311 319 319 327 330 329 334 337 319 247 230 29 20 337 136 178 209 182 213 269 248 191 194 225 72 204 183 194 203 218 249 249 256 232 252 235 216 221 218 214
193 213 243 272 290 304 306 308 310 319 319 326 335 316 256 31 358 341 174 11 32 260 166 67 156 246 163 161 138 171 225 212 211 205 225 246 244 240 240 187 247 233 232 231 222
187 213 238 267 283 290 292 294 297 305 314 318 316 283 349 52 357 51 155 98 73 73 88 79 193 115 333 130 161 221 244 234 124 179 166 225 264 238 337 211 242 243 238 232 230
185 205 217 259 287 292 294 292 287 290 287 295 268 283 161 111 185 31 351 163 108 86 83 117 191 105 168 215 200 200 261 214 199 202 194 216 281 201 103 241 255 252 248 242 237
220 224 224 254 288 295 303 288 304 268 231 238 247 248 158 145 137 142 78 111 150 143 133 169 197 211 223 214 224 231 226 226 257 138 226 243 256 270 264 237 257 262 257 248 244
57 54 250 257 270 295 315 233 224 204 217 295 21 7 116 99 215 178 161 143 173 206 204 186 217 215 224 227 271 288 293 267 259 119 285 262 270 268 273 270 265 258 255 257 253
25 28 21 250 273 299 283 272 47 19 267 215 261 274 218 223 159 182 196 188 197 207 175 191 227 235 139 133 224 245 255 260 272 103 250 280 279 277 271 263 257 260 259 256 255
19 17 351 145 283 280 322 51 347 266 258 220 218 235 176 191 238 182 186 175 198 200 209 235 181 291 187 201 215 232 245 255 263 323 238 284 273 266 249 247 264 260 261 262 258
24 8 13 126 78 25 255 336 304 315 269 211 197 172 158 176 233 17 200 224 204 216 210 239 221 165 210 238 227 255 244 254 270 280 271 293 288 288 288 273 252 255 248 252 251
8 10 350 307 119 233 38 290 296 244 250 95 146 112 132 204 100 102 95 219 221 190 191 185 193 204 219 218 204 245 34 254 271 265 299 236 268 262 250 261 260 260 263 265 267
359 351 340 246 112 79 250 191 253 94 235 196 133 176 159 180 102 96 180 194 336 235 245 275 6 219 240 72 212 131 118 117 190 278 263 248 226 265 249 267 265 264 271 258 280
343 335 330 300 122 133 193 146 84 187 142 189 180 192 198 170 176 188 176 191 199 197 226 214 218 162 171 119 137 199 185 228 239 199 254 68 277 247 298 288 267 279 294 295 294
328 319 324 277 10 285 241 194 211 181 210 116 136 165 191 159 202 191 199 219 222 240 286 212 219 187 188 217 176 198 203 207 231 239 265 106 238 263 260 308 314 269 272 286 271
315 305 274 262 209 274 151 204 219 214 209 151 152 193 183 191 231 203 225 235 218 206 219 223 238 192 215 218 209 177 221 245 272 348 281 251 265 272 253 227 265 276 284 284 288
315 293 248 13 176 185 207 228 230 271 69 217 220 203 214 181 187 203 192 203 220 227 227 260 260 167 141 215 253 239 225 197 215 222 233 255 256 259 284 280 270 276 281 298 316
256 236 100 201 186 215 222 231 233 228 223 222 236 251 232 243 220 199 245 159 201 214 207 234 227 133 171 207 198 187 220 223 249 228 245 252 257 273 276 339 355 358 319 314 315
206 226 77 188 186 208 224 221 249 212 229 243 268 278 243 216 241 233 237 226 93 153 184 216 278 246 219 178 249 242 226 218 220 221 242 271 270 251 280 304 311 286 300 286 306
206 272 97 243 202 211 222 228 229 231 225 218 228 234 239 239 243 225 252 321 127 228 333 161 218 244 249 221 203 247 239 248 246 252 250 233 255 269 266 282 291 283 287 331 320
183 206 160 236 263 244 219 223 222 221 239 233 240 241 238 239 240 261 277 55 28 49 27 82 216 228 241 250 59 197 239 241 238 237 241 241 257 273 264 271 277 258 241 252 259
226 225 195 194 223 223 240 226 221 222 218 214 232 232 224 230 233 237 232 263 264 141 66 27 237 231 258 274 283 284 280 269 241 242 239 254 247 262 270 275 280 289 293 286 290
174 207 198 279 215 205 219 229 231 219 196 214 232 229 226 237 236 245 233 177 229 186 197 185 236 331 294 278 280 280 273 266 256 261 259 260 263 257 280 278 277 284 278 282 279
197 197 272 222 217 211 213 225 232 222 232 246 237 237 237 239 260 301 20 342 273 271 251 289 243 230 263 269 266 247 241 250 248 246 251 254 259 273 269 276 283 285 287 279 278